{"data":{"norad_id":66818,"intl_designator":"2025-278AD","name":"STARLINK-35994","alt_names":[],"object_type":"PAYLOAD","status":"ACTIVE","operator":null,"country":"US","launch_date":"2025-12-01","launch_site_code":"AFETR","launch_vehicle":null,"mission":null,"orbit_class":"UNKNOWN","rcs_meters":null,"size_class":null,"mass_kg":null,"dimensions":null,"purposes":["comms"],"wikipedia_slug":null,"has_3d_model":false,"image_url":null,"decayed_at":null,"tle_current":{"epoch":"2026-05-25T02:05:34.924128Z","epoch_age_seconds":71003,"freshness":"FRESH","line1":"1 66818U 25278AD  26145.08720977  .00020176  00000+0  74027-3 0  9999","line2":"2 66818  43.0031  42.8703 0001266 276.9251  83.1457 15.27598861 26898","mean_motion":15.27598861,"eccentricity":0.0001266,"inclination_deg":43.0031,"raan_deg":42.8703,"arg_perigee_deg":276.9251,"mean_anomaly_deg":83.1457,"bstar":0.00074027,"rev_number":2689,"period_min":94.265584818343,"perigee_km":482.12400099164,"apogee_km":483.86123901143,"semimajor_km":6861.1296200015,"source":"CELESTRAK","updated_at":"2026-05-25T13:38:21.332839Z"}}}